Sydney, Australia

4:30 PM AEST on April 23, 2017 (GMT +1000)
Kingsford Smith International

Weather History for YSSY - January, 2013

Change the Weather History Date:

Thursday, January 17, 2013

  Actual Average Record
Temperature  
Mean Temperature 77 °F -  
Max Temperature 84 °F 80 °F 98 °F (2017)
Min Temperature 70 °F 66 °F 60 °F (2002)
Cooling Degree Days 12    
Growing Degree Days 27 (Base 50)    
Moisture  
Dew Point 67 °F    
Average Humidity 72    
Maximum Humidity 94    
Minimum Humidity 39    
Precipitation  
Precipitation 0.00 in 0.15 in - ()
Sea Level Pressure  
Sea Level Pressure 29.82 in    
Wind  
Wind Speed 12 mph ()    
Max Wind Speed 24 mph    
Max Gust Speed 29 mph    
Visibility 7.6 miles    
Events      
Averages and records for this station are not official NWS values.
T = Trace of Precipitation, MM = Missing Value Source: Averaged Metar Reports

Daily Weather History Graph

Daily Weather History Graph

Search for Another Location

Airport or City:

Trip Planner

Search our weather history database for the weather conditions in past years. The results will help you decide how hot, cold, wet, or windy it might be!

Date:

Astronomy

Jan. 17, 2013 Rise Set
Actual Time 6:01 AM AEDT 8:08 PM AEDT
Civil Twilight 5:33 AM AEDT 8:36 PM AEDT
Nautical Twilight 4:58 AM AEDT 9:11 PM AEDT
Astronomical Twilight 4:21 AM AEDT 9:48 PM AEDT
Moon 11:34 AM AEDT (1/17) 11:20 PM AEDT (1/17)
Length of Visible Light 15h 03m
Length of Day
14h 07m
Waxing Crescent, 31% of the Moon is Illuminated
Jan 17
Waxing Crescent
Jan 19
First Quarter
Jan 27
Full
Feb 4
Last Quarter
Feb 10
New

Hourly Weather History & Observations

Time (AEDT) Temp. Heat Index Dew Point Humidity Pressure Visibility Wind Dir Wind Speed Gust Speed Precip Events Conditions
12:00 AM 72 °F - 68 °F 83% 29.95 in 16 mi South 12.7 mph - -   Partly Cloudy
12:00 AM 71.6 °F - 68.0 °F 88% 29.95 in 6.2 mi South 12.7 mph - N/A   Partly Cloudy
12:30 AM 71.6 °F - 68.0 °F 88% 29.92 in 6.2 mi SSW 11.5 mph - N/A   Scattered Clouds
1:00 AM 71.6 °F - 68.0 °F 88% 29.92 in 6.2 mi South 12.7 mph - N/A   Scattered Clouds
1:30 AM 71.6 °F - 68.0 °F 88% 29.92 in 6.2 mi South 15.0 mph - N/A   Partly Cloudy
2:00 AM 71 °F - 68 °F 88% 29.91 in - South 15.0 mph - -  
2:00 AM 71.6 °F - 68.0 °F 88% 29.89 in 6.2 mi South 15.0 mph - N/A   Partly Cloudy
2:30 AM 71.6 °F - 68.0 °F 88% 29.89 in 6.2 mi South 13.8 mph - N/A   Partly Cloudy
3:00 AM 71 °F - 68 °F 86% 29.89 in 14 mi South 12.7 mph - -   Haze
3:00 AM 71.6 °F - 68.0 °F 88% 29.89 in 6.2 mi South 12.7 mph - N/A   Partly Cloudy
3:30 AM 69.8 °F - 68.0 °F 94% 29.89 in 6.2 mi South 12.7 mph - N/A   Scattered Clouds
4:00 AM 69.8 °F - 68.0 °F 94% 29.89 in 6.2 mi South 11.5 mph - N/A   Scattered Clouds
4:30 AM 69.8 °F - 68.0 °F 94% 29.89 in 6.2 mi South 10.4 mph - N/A   Scattered Clouds
5:00 AM 71 °F - 67 °F 83% 29.90 in - SSW 9.2 mph - -  
5:00 AM 69.8 °F - 66.2 °F 88% 29.89 in 6.2 mi SSW 9.2 mph - N/A   Mostly Cloudy
5:30 AM 69.8 °F - 66.2 °F 88% 29.89 in 6.2 mi SSW 9.2 mph - N/A   Mostly Cloudy
6:00 AM 71 °F - 66 °F 80% 29.91 in 11 mi SSW 9.2 mph - -   Haze
6:00 AM 69.8 °F - 66.2 °F 88% 29.89 in 6.2 mi SSW 9.2 mph - N/A   Mostly Cloudy
6:30 AM 69.8 °F - 66.2 °F 88% 29.92 in 6.2 mi WSW 6.9 mph - N/A   Mostly Cloudy
7:00 AM 69.8 °F - 66.2 °F 88% 29.92 in 6.2 mi WSW 8.1 mph - N/A   Scattered Clouds
7:30 AM 71.6 °F - 66.2 °F 83% 29.92 in 6.2 mi SW 6.9 mph - N/A   Scattered Clouds
8:00 AM 72 °F - 67 °F 79% 29.93 in - SSW 5.8 mph - -  
8:00 AM 71.6 °F - 66.2 °F 83% 29.92 in 6.2 mi SSW 5.8 mph - N/A   Scattered Clouds
8:30 AM 71.6 °F - 68.0 °F 88% 29.92 in 6.2 mi South 6.9 mph - N/A   Scattered Clouds
9:00 AM 74 °F - 68 °F 75% 29.91 in 12 mi South 9.2 mph - -   Haze
9:00 AM 73.4 °F - 68.0 °F 83% 29.89 in 6.2 mi South 9.2 mph - N/A   Scattered Clouds
9:30 AM 75.2 °F - 68.0 °F 78% 29.89 in 6.2 mi South 6.9 mph - N/A   Scattered Clouds
10:00 AM 75.2 °F - 68.0 °F 78% 29.86 in 6.2 mi South 8.1 mph - N/A   Scattered Clouds
10:30 AM 77.0 °F - 68.0 °F 74% 29.86 in 6.2 mi ESE 5.8 mph - N/A   Scattered Clouds
11:00 AM 82 °F - 64 °F 45% 29.86 in - ENE 8.1 mph - -  
11:00 AM 82.4 °F 83.9 °F 64.4 °F 54% 29.86 in 6.2 mi ENE 8.1 mph - N/A   Scattered Clouds
11:30 AM 82.4 °F 83.9 °F 64.4 °F 54% 29.83 in 6.2 mi NNE 13.8 mph - N/A   Partly Cloudy
12:00 PM 82 °F - 61 °F 39% 29.84 in 16 mi NNE 15.0 mph - -   Haze
12:00 PM 82.4 °F 82.9 °F 60.8 °F 48% 29.83 in 6.2 mi NNE 15.0 mph - N/A   Partly Cloudy
12:30 PM 84.2 °F 85.6 °F 64.4 °F 51% 29.83 in 6.2 mi NE 17.3 mph - N/A   Partly Cloudy
1:00 PM 82.4 °F 83.9 °F 64.4 °F 54% 29.80 in 6.2 mi ENE 16.1 mph - N/A   Partly Cloudy
1:30 PM 84.2 °F 86.6 °F 66.2 °F 55% 29.80 in 6.2 mi ENE 19.6 mph - N/A   Partly Cloudy
2:00 PM 82 °F - 67 °F 50% 29.80 in - ENE 21.9 mph - -  
2:00 PM 82.4 °F 84.6 °F 66.2 °F 58% 29.77 in 6.2 mi ENE 21.9 mph - N/A   Partly Cloudy
2:30 PM 84.2 °F 85.6 °F 64.4 °F 51% 29.77 in 6.2 mi NE 20.7 mph - N/A   Partly Cloudy
3:00 PM 83 °F - 65 °F 46% 29.76 in 16 mi ENE 20.7 mph - -   Partly Cloudy
3:00 PM 84.2 °F 86.6 °F 66.2 °F 55% 29.74 in 6.2 mi ENE 20.7 mph - N/A   Partly Cloudy
3:30 PM 82.4 °F 83.9 °F 64.4 °F 54% 29.74 in - ENE 20.7 mph - N/A   Clear
4:00 PM 82.4 °F 84.6 °F 66.2 °F 58% 29.71 in - ENE 20.7 mph - N/A   Clear
4:30 PM 84.2 °F 86.6 °F 66.2 °F 55% 29.71 in 6.2 mi ENE 23.0 mph - N/A   Partly Cloudy
5:00 PM 83 °F - 67 °F 49% 29.73 in - NE 24.2 mph - -  
5:00 PM 82.4 °F 84.6 °F 66.2 °F 58% 29.71 in 6.2 mi NE 24.2 mph - N/A   Partly Cloudy
5:30 PM 82.4 °F 85.4 °F 68.0 °F 62% 29.71 in 6.2 mi NE 21.9 mph - N/A   Partly Cloudy
6:00 PM 83 °F - 67 °F 50% 29.71 in 16 mi NE 24.2 mph - -   Partly Cloudy
6:00 PM 82.4 °F 85.4 °F 68.0 °F 62% 29.71 in 6.2 mi NE 24.2 mph - N/A   Partly Cloudy
6:30 PM 82.4 °F 85.4 °F 68.0 °F 62% 29.71 in 6.2 mi NE 24.2 mph - N/A   Partly Cloudy
7:00 PM 80.6 °F 83.2 °F 68.0 °F 65% 29.71 in 6.2 mi NNE 19.6 mph - N/A   Partly Cloudy
7:30 PM 78.8 °F - 68.0 °F 69% 29.71 in 6.2 mi NE 20.7 mph - N/A   Partly Cloudy
7:51 PM 78.8 °F - 69.8 °F 74% 29.71 in 6.2 mi NNE 17.3 mph 28.8 mph N/A   Partly Cloudy
8:00 PM 78 °F - 69 °F 67% 29.74 in - NNE 19.6 mph - -  
8:00 PM 78.8 °F - 69.8 °F 74% 29.71 in 6.2 mi NNE 19.6 mph - N/A   Partly Cloudy
8:30 PM 78.8 °F - 69.8 °F 74% 29.71 in 6.2 mi NNE 19.6 mph - N/A   Partly Cloudy
9:00 PM 78 °F - 69 °F 67% 29.75 in 16 mi NNE 16.1 mph - -   Partly Cloudy
9:00 PM 78.8 °F - 69.8 °F 74% 29.74 in - NNE 16.1 mph - N/A   Clear
9:30 PM 78.8 °F - 68.0 °F 69% 29.74 in - NNE 13.8 mph - N/A   Clear
10:00 PM 77.0 °F - 68.0 °F 74% 29.74 in - NNE 12.7 mph - N/A   Clear
10:30 PM 77.0 °F - 68.0 °F 74% 29.74 in - NNE 9.2 mph - N/A   Clear
11:00 PM 76 °F - 69 °F 72% 29.75 in - NE 8.1 mph - -  
11:00 PM 77.0 °F - 68.0 °F 74% 29.74 in - NE 8.1 mph - N/A   Clear
11:30 PM 75.2 °F - 68.0 °F 78% 29.74 in - NE 6.9 mph - N/A   Clear